www.pogodaiklimat.ru

Погода и климат >> Архив погоды >> Норвегия >> Хаммерфест аэропорт


ПОГОДА в Хаммерфест аэропорту

  • Прогноз погоды в Хаммерфест аэропорту
  • Монитор погоды в Хаммерфест аэропорту

АРХИВ ПОГОДЫ в Хаммерфест аэропорту

Время (UTC), дата Ветер
(напр.,м/с)
 
Видим.   Явления Облачность Т
(С)
Тd
(С)
f
(%)
Тe
(С)
Тes
(С)
Комфортность P
(гПа)
Po
(гПа)
Тmin
(С)
Tmax
(С)
R
(мм)
R24
(мм)
S
(см)
10 17.01 В 5
{6}
н/о н/о -6.2 -8.9 81 -13 -13 990.7 980.7
11 17.01 В 5
{7}
н/о н/о -5.7 -8.9 78 -13 -13 990.6 980.6
12 17.01 В 5
{7}
н/о н/о -6.1 -8.9 81 -13 -13 990.5 980.5
13 17.01 В 5
{7}
н/о н/о -5.7 -8.6 80 -13 -13 990.1 980.1
14 17.01 В 4
{7}
н/о н/о -7.0 -9.5 82 -14 -14 990.3 980.2
15 17.01 СВ 3
{5}
н/о н/о -7.0 -9.8 80 -13 -13 990.4 980.4
16 17.01 СВ 4
{5}
н/о н/о -6.3 -9.6 77 -13 -13 990.4 980.4
17 17.01 В 3
{5}
н/о н/о -5.6 -9.4 75 -11 -11 990.4 980.4
18 17.01 СВ 2
{7}
н/о н/о -6.5 -9.6 79 -11 -11 990.6 980.6 -7.9 -5.1
19 17.01 СВ 2
{3}
н/о н/о -6.1 -8.5 83 -10 -10 990.8 980.8
20 17.01 СВ 1
{2}
н/о н/о -6.3 -8.0 88 -9 -9 990.8 980.8
21 17.01 СВ 2
{3}
н/о н/о -5.8 -7.3 89 -10 -10 990.9 980.9
22 17.01 СВ 1
{3}
н/о н/о -5.1 -6.7 89 -8 -8 991.1 981.1
23 17.01 С 1
{3}
н/о н/о -5.8 -6.9 92 -8 -8 991.1 981.1
00 18.01 СВ 1
{3}
н/о н/о -5.9 -7.4 89 -8 -8 991.1 981.1
01 18.01 С 1
{2}
н/о н/о -5.5 -7.2 88 -8 -8 991.1 981.0
02 18.01 СВ 1
{3}
н/о н/о -5.3 -7.3 86 -8 -8 991.1 981.1
03 18.01 В 1
{3}
н/о н/о -5.7 -7.7 86 -8 -8 991.4 981.4
04 18.01 ЮВ 2
{5}
н/о н/о -5.2 -7.8 82 -9 -9 991.6 981.6
05 18.01 Ю 4
{6}
н/о н/о -4.8 -7.1 84 -11 -11 991.7 981.7
06 18.01 Ю 4
{7}
н/о н/о -5.2 -7.9 81 -12 -12 991.7 981.7 -6.6 -4.7
07 18.01 Ю 5
{8}
н/о н/о -5.4 -8.4 79 -13 -13 992.0 982.0
08 18.01 Ю 5
{8}
н/о н/о -5.4 -8.3 80 -13 -13 992.3 982.3
09 18.01 Ю 5
{9}
н/о н/о -5.3 -8.6 78 -12 -12 992.5 982.4
10 18.01 Ю 5
{8}
н/о н/о -5.5 -8.7 78 -13 -13 992.8 982.8
11 18.01 Ю 5
{8}
н/о н/о -5.6 -8.6 79 -13 -13 992.9 982.8 0.3
12 18.01 Ю 5
{9}
н/о н/о -5.6 -8.3 81 -13 -13 993.0 983.0 0.2
13 18.01 Ю 6
{9}
н/о н/о -5.9 -7.8 86 -14 -14 993.2 983.1
14 18.01 Ю 4
{9}
н/о н/о -6.0 -7.3 90 -13 -13 993.2 983.1
15 18.01 Ю 5
{7}
н/о н/о -5.4 -6.5 92 -13 -13 993.1 983.0 0.2
16 18.01 Ю 5
{8}
н/о н/о -4.9 -5.6 95 -12 -12 992.8 982.8 0.5
17 18.01 ЮВ 3
{9}
н/о н/о -4.7 -5.2 96 -10 -10 993.1 983.1 1
18 18.01 В 2
{9}
н/о н/о -3.5 -4.0 96 -8 -8 993.0 983.0 -6.1 -3.4 1
19 18.01 С 7
{10}
н/о н/о -3.0 -4.9 87 -11 -11 993.3 983.4
20 18.01 СВ 3
{7}
н/о н/о -3.7 -5.5 87 -9 -9 993.8 983.9
21 18.01 СВ 3
{5}
н/о н/о -3.9 -5.7 87 -9 -9 994.4 984.4
22 18.01 В 1
{4}
н/о н/о -4.3 -6.2 87 -7 -7 994.9 984.8
23 18.01 штиль 0
{3}
н/о н/о -4.6 -5.8 91 -6 -6 995.2 985.2 0.3
00 19.01 СВ 2
{10}
н/о н/о -3.3 -4.3 93 -8 -8 995.2 985.2
01 19.01 СВ 1
{3}
н/о н/о -4.5 -6.1 89 -7 -7 995.4 985.3
02 19.01 СВ 1
{3}
н/о н/о -4.9 -6.4 89 -7 -7 995.4 985.4
03 19.01 С 1
{2}
н/о н/о -6.5 -8.5 86 -9 -9 995.5 985.4
04 19.01 Ю 4
{6}
н/о н/о -4.9 -7.2 84 -11 -11 995.9 985.9
05 19.01 Ю 4
{7}
н/о н/о -4.0 -5.0 93 -10 -10 996.0 986.0 0.4
06 19.01 ЮЗ 6
{8}
н/о н/о -3.3 -5.1 87 -11 -11 995.9 985.9 -7.7 -2.9 0.2
07 19.01 Ю 3
{8}
н/о н/о -3.5 -5.3 87 -9 -9 996.3 986.4 0.1
08 19.01 З 6
{9}
н/о н/о -2.9 -5.5 82 -10 -10 996.6 986.7 0.1
09 19.01 З 3
{8}
н/о н/о -3.8 -4.6 94 -9 -9 997.3 987.2 0.4
10 19.01 З 4
{6}
н/о н/о -3.4 -4.3 93 -10 -10 997.6 987.6 0.4
11 19.01 З 5
{7}
н/о н/о -2.8 -4.6 87 -10 -10 997.9 988.0
12 19.01 СВ 8
{10}
н/о н/о -4.0 -4.7 95 -13 -13 998.7 988.7 1
13 19.01 СВ 9
{13}
н/о н/о -4.0 -5.6 89 -13 -13 999.4 989.4 0.8
14 19.01 СВ 9
{14}
н/о н/о -3.7 -7.4 75 -12 -12 1000.2 990.2 0.2
15 19.01 С 10
{13}
н/о н/о -3.9 -8.5 70 -13 -13 1001.1 991.0
16 19.01 С 9
{12}
н/о н/о -4.0 -10.3 62 -13 -13 1002.2 992.1 0.2
17 19.01 С 8
{11}
н/о н/о -4.6 -9.9 66 -13 -13 1002.8 992.7 0.2
18 19.01 С 6
{14}
н/о н/о -4.7 -10.7 63 -12 -12 1003.2 993.1 -4.9 -2.7
19 19.01 С 6
{7}
н/о н/о -4.7 -11.1 61 -12 -12 1003.7 993.6
20 19.01 С 6
{7}
н/о н/о -4.8 -11.8 58 -12 -12 1004.2 994.1
21 19.01 СВ 4
{6}
н/о н/о -4.8 -12.5 55 -11 -11 1004.6 994.5
22 19.01 СВ 2
{4}
н/о н/о -5.9 -12.5 60 -10 -10 1005.0 994.8
23 19.01 Ю 2
{4}
н/о н/о -7.2 -12.2 67 -11 -11 1005.4 995.2
00 20.01 Ю 1
{7}
н/о н/о -5.1 -9.0 74 -7 -7 1005.5 995.3
01 20.01 ЮЗ 5
{7}
н/о н/о -5.9 -9.8 74 -13 -13 1005.5 995.4
02 20.01 Ю 4
{6}
н/о н/о -5.4 -9.2 75 -12 -12 1005.6 995.4
03 20.01 Ю 4
{5}
н/о н/о -5.3 -9.2 74 -12 -12 1005.3 995.1
04 20.01 Ю 5 н/о н/о -4.5 -8.6 73 -11 -11 1005.0 994.9
05 20.01 Ю 5
{7}
н/о н/о -4.6 -9.0 71 -11 -11 1004.9 994.8
06 20.01 ЮЗ 8
{11}
н/о н/о -3.6 -9.1 66 -12 -12 1004.8 994.8 -7.9 -3.5
07 20.01 ЮЗ 10
{13}
н/о н/о -3.1 -9.6 61 -12 -12 1004.9 994.9
08 20.01 ЮЗ 9
{14}
н/о н/о -3.1 -8.6 66 -12 -12 1004.8 994.7
09 20.01 ЮЗ 11
{17}
н/о н/о -2.8 -7.6 69 -12 -12 1005.5 995.4 0.4
10 20.01 З 11
{17}
н/о н/о -4.4 -6.2 87 -14 -14 1006.5 996.4 0.1
11 20.01 З 9
{14}
н/о н/о -4.6 -5.3 95 -14 -14 1006.8 996.6 2
12 20.01 З 4
{17}
н/о н/о -4.3 -4.9 96 -11 -11 1006.9 996.7 2
13 20.01 СВ 2
{6}
н/о н/о -4.5 -5.1 96 -9 -9 1007.1 997.0 2
14 20.01 С 6
{8}
н/о н/о -4.9 -7.5 82 -13 -13 1007.4 997.3 1
15 20.01 СВ 6
{9}
н/о н/о -5.4 -9.2 75 -13 -13 1007.8 997.6 0.2
16 20.01 СВ 7
{8}
н/о н/о -5.1 -9.4 72 -13 -13 1008.0 997.8
17 20.01 С 5
{9}
н/о н/о -4.8 -10.1 66 -12 -12 1008.1 998.0
18 20.01 С 4
{9}
н/о н/о -5.4 -9.0 76 -12 -12 1008.3 998.1 -5.6 -2.4
19 20.01 В 3
{6}
н/о н/о -5.6 -9.4 75 -11 -11 1008.2 998.0
20 20.01 СВ 5
{8}
н/о н/о -6.0 -7.3 90 -13 -13 1008.8 998.6 0.4
21 20.01 В 1
{4}
н/о н/о -6.3 -7.3 93 -9 -9 1008.9 998.7 0.4
22 20.01 СВ 1
{3}
н/о н/о -6.2 -7.0 94 -9 -9 1008.9 998.7 1
23 20.01 ЮВ 1
{2}
н/о н/о -6.0 -6.7 95 -9 -9 1008.8 998.6 0.9
00 21.01 СВ 1
{8}
н/о н/о -6.1 -6.8 95 -9 -9 1008.6 998.4 1
01 21.01 СВ 2
{3}
н/о н/о -5.8 -6.9 92 -10 -10 1008.3 998.1 0.5
02 21.01 СЗ 5
{8}
н/о н/о -4.7 -7.9 78 -12 -12 1008.1 997.9 0.7
03 21.01 СЗ 2
{10}
н/о н/о -5.8 -7.9 85 -10 -10 1008.1 997.9
04 21.01 СВ 4 н/о н/о -6.1 -7.7 88 -13 -13 1008.1 997.8 0.7
05 21.01 СЗ 9
{13}
н/о н/о -5.7 -7.7 86 -15 -15 1008.1 998.0
06 21.01 СЗ 5
{13}
н/о н/о -4.9 -8.2 78 -12 -12 1008.1 997.9 -6.4 -4.7 0.4
07 21.01 С 7
{15}
н/о н/о -5.2 -10.0 69 -13 -13 1008.5 998.3 0.7
08 21.01 СЗ 8
{13}
н/о н/о -4.9 -10.6 64 -13 -13 1008.7 998.6 0.2
09 21.01 СЗ 7
{13}
н/о н/о -4.8 -10.3 65 -13 -13 1009.0 998.8 0.1
10 21.01 С 8
{14}
н/о н/о -4.7 -9.8 67 -13 -13 1009.0 998.9 0.2
11 21.01 СЗ 8
{14}
н/о н/о -5.5 -8.4 80 -14 -14 1009.2 999.0 0.4
12 21.01 СЗ 5
{15}
н/о н/о -4.4 -7.1 81 -11 -11 1008.7 998.5 0.6
13 21.01 З 8
{14}
н/о н/о -3.9 -8.4 71 -12 -12 1008.4 998.3 0.1
14 21.01 З 8
{15}
н/о н/о -3.9 -6.5 82 -12 -12 1008.4 998.3 0.2
15 21.01 З 10
{15}
н/о н/о -3.0 -5.0 86 -12 -12 1007.7 997.6 0.2
16 21.01 СЗ 9
{17}
н/о н/о -2.3 -5.2 80 -11 -11 1007.5 997.4 0.3
17 21.01 СЗ 8
{15}
н/о н/о -2.3 -6.2 75 -10 -10 1007.7 997.7 0.2
18 21.01 СЗ 8
{17}
н/о н/о -3.5 -5.4 87 -12 -12 1007.9 997.8 -5.9 -2.1 0.3
19 21.01 С 6
{10}
н/о н/о -3.8 -5.4 89 -11 -11 1007.5 997.3 0.5
20 21.01
{9}
н/о н/о -4.1 -5.2 92 1007.2 997.0 0.8
21 21.01 СЗ 2
{8}
н/о н/о -4.2 -5.2 93 -9 -9 1006.7 996.6 1
22 21.01 В 1
{2}
н/о н/о -4.4 -5.1 95 -7 -7 1006.0 995.9 0.6
23 21.01 В 2
{4}
н/о н/о -4.2 -4.8 96 -9 -9 1005.5 995.4 0.5
00 22.01 В 1
{10}
н/о н/о -4.5 -5.1 96 -7 -7 1005.1 995.0 0.6
01 22.01 СВ 1
{2}
н/о н/о -4.7 -5.4 95 -7 -7 1004.3 994.2 0.7
02 22.01 СВ 3
{3}
н/о н/о -4.7 -5.4 95 -10 -10 1004.2 994.1 0.3
03 22.01 СВ 4
{5}
н/о н/о -4.6 -5.2 96 -11 -11 1004.4 994.2 0.2
04 22.01 СВ 8
{11}
н/о н/о -4.7 -5.5 94 -14 -14 1004.5 994.4 0.4
05 22.01 СВ 9
{13}
н/о н/о -5.0 -6.1 92 -14 -14 1004.8 994.7 0.3
06 22.01 В 7
{13}
н/о н/о -4.9 -6.6 88 -13 -13 1004.8 994.7 -5.1 -3.4 0.1
07 22.01 СВ 6
{12}
н/о н/о -5.2 -7.2 86 -13 -13 1005.4 995.3 0.1
08 22.01 В 5
{10}
н/о н/о -5.3 -7.2 86 -13 -13 1005.7 995.5 0.1
09 22.01 СВ 6
{11}
н/о н/о -6.3 -7.6 90 -14 -14 1006.1 995.9 0.1
10 22.01 В 5
{7}
н/о н/о -5.8 -7.9 85 -13 -13 1006.5 996.3 0.1
11 22.01 СВ 2
{6}
н/о н/о -7.1 -11.5 71 -11 -11 1006.7 996.5 0.1
12 22.01 ЮВ 1
{12}
н/о н/о -6.9 -9.2 84 -9 -9 1006.9 996.7 0.1
13 22.01 СВ 2
{4}
н/о н/о -6.1 -8.4 84 -10 -10 1007.0 996.8 0.1
14 22.01 В 2
{6}
н/о н/о -6.3 -8.7 83 -11 -11 1007.1 996.9 0.1
15 22.01 СВ 2
{4}
н/о н/о -8.8 -10.5 87 -13 -13 1007.5 997.2 0.1
16 22.01 СВ 2
{4}
н/о н/о -8.8 -10.4 88 -13 -13 1007.6 997.3 0.1
17 22.01 СВ 2
{3}
н/о н/о -9.7 -11.4 87 -14 -14 1007.8 997.5 0.1
18 22.01 С 1
{6}
н/о н/о -8.1 -10.3 84 -10 -10 1007.7 997.4 -11.2 -4.7 0.1
19 22.01 В 1
{3}
н/о н/о -7.7 -9.2 89 -10 -10 1007.8 997.6 0.1
20 22.01 СВ 1
{3}
н/о н/о -9.7 -11.1 89 -12 -12 1007.9 997.6 0.1
21 22.01 СВ 2
{3}
н/о н/о -8.9 -10.2 90 -13 -13 1007.9 997.6 0.1
22 22.01 СВ 1
{3}
н/о н/о -7.7 -8.5 94 -10 -10 1008.3 998.0 0.1
23 22.01 СВ 1
{2}
н/о н/о -7.4 -8.6 91 -10 -10 1008.5 998.2 0.1
00 23.01 СВ 1
{3}
н/о н/о -7.0 -8.1 92 -9 -9 1008.8 998.6 0.1
01 23.01 СВ 2
{3}
н/о н/о -10.7 -12.1 89 -15 -15 1009.4 999.0
02 23.01 СВ 2
{3}
н/о н/о -9.0 -10.6 88 -14 -14 1009.7 999.4
03 23.01 СВ 2
{3}
н/о н/о -7.9 -9.6 88 -12 -12 1010.2 999.9
04 23.01 СВ 2 н/о н/о -8.2 -10.0 87 -13 -13 1011.0 1000.7
05 23.01 СВ 2
{4}
н/о н/о -8.7 -10.5 87 -13 -13 1011.5 1001.1
06 23.01 СВ 2
{4}
н/о н/о -7.7 -9.0 90 -12 -12 1011.8 1001.5 -11.2 -6.1
07 23.01 СВ 2
{3}
н/о н/о -8.6 -9.8 91 -13 -13 1012.7 1002.4
08 23.01 С 2
{8}
н/о н/о -10.4 -11.8 89 -15 -15 1013.5 1003.0
09 23.01 СВ 2
{3}
н/о н/о -7.3 -8.9 88 -12 -12 1014.1 1003.8
10 23.01 В 2
{4}
н/о н/о -9.9 -11.0 92 -14 -14 1014.6 1004.2
11 23.01 С 1
{3}
н/о н/о -7.2 -8.4 91 -10 -10 1015.0 1004.7
12 23.01 СВ 2
{8}
н/о н/о -8.9 -10.1 91 -13 -13 1015.5 1005.1
13 23.01 СВ 2
{3}
н/о н/о -7.5 -8.7 91 -12 -12 1015.8 1005.5
14 23.01 СВ 2
{3}
н/о н/о -8.3 -9.2 93 -13 -13 1016.2 1005.9
15 23.01 В 2
{4}
н/о н/о -8.7 -9.6 93 -13 -13 1016.8 1006.4
16 23.01 СВ 2
{3}
н/о н/о -8.8 -9.9 92 -13 -13 1017.1 1006.7
17 23.01 СВ 2
{3}
н/о н/о -7.1 -7.7 95 -12 -12 1017.7 1007.3
18 23.01 СВ 1
{4}
н/о н/о -7.1 -7.8 95 -10 -10 1018.2 1007.9 -10.6 -6.7
19 23.01 СВ 1
{3}
н/о н/о -6.7 -7.9 91 -9 -9 1018.6 1008.3
20 23.01 СВ 2
{3}
н/о н/о -7.3 -8.3 93 -12 -12 1019.3 1008.9
21 23.01 СВ 2
{3}
н/о н/о -9.6 -10.9 90 -14 -14 1019.7 1009.3
22 23.01 СВ 2
{3}
н/о н/о -8.1 -9.2 92 -13 -13 1019.9 1009.5
23 23.01 В 1
{3}
н/о н/о -7.3 -8.5 91 -10 -10 1020.1 1009.7
00 24.01 СВ 1
{3}
н/о н/о -8.2 -9.5 90 -11 -11 1020.3 1009.9
01 24.01 СВ 1
{3}
н/о н/о -6.9 -7.9 93 -9 -9 1020.3 1009.9
02 24.01 СВ 1
{2}
н/о н/о -5.8 -6.8 93 -8 -8 1020.3 1010.0
03 24.01 СЗ 2
{2}
н/о н/о -6.5 -7.3 94 -11 -11 1020.2 1009.9 0.2
04 24.01 СВ 2
{3}
н/о н/о -6.3 -6.9 95 -11 -11 1020.1 1009.7
05 24.01 С 1
{2}
н/о н/о -5.3 -5.9 96 -8 -8 1019.8 1009.5 1
06 24.01 СВ 2
{3}
н/о н/о -4.8 -5.3 96 -9 -9 1020.0 1009.7 -9.6 -4.8 0.3
07 24.01 СВ 1
{2}
н/о н/о -6.3 -7.1 94 -9 -9 1020.0 1009.7 0.6
08 24.01 СВ 1
{2}
н/о н/о -7.7 -8.4 95 -10 -10 1020.4 1010.0
10 24.01 СВ 2
{3}
н/о н/о -6.6 -7.2 95 -11 -11 1020.5 1010.1

 

Местоположение метеостанции Хаммерфест аэропорт (Норвегия): широта 70.68 долгота 23.38 высота над уровнем моря 81 м.

В архиве по умолчанию представлена погода в Хаммерфест аэропорту за последнюю неделю. Архивные данные за месяц целиком и за предыдущие месяцы, начиная с января 2011 года, Вы можете получить, выбрав интересующий диапазон дат из раскрывающегося списка и нажав кнопку "Ввод!".


*Определитесь, кто Вы:
робот инопланетянин человек

Внимание! Время в таблицах - всемирное. Для получения местного времени необходимо прибавить поправку, которая равна 1 ч.

Смотрите также архив погоды в соседних городах и на ближайших метеорологических станциях:

Погода на Хасвике (Норвегия) (36 км)
Погода в Рогнсундете (Норвегия) (37 км)
Погода в Хасвик аэропорту (Норвегия) (50 км)
Погода на Маяке Fruholmen (Норвегия) (51 км)
Погода в Альта аэропорту (Норвегия) (78 км)
Погода в Банаке (Норвегия) (92 км)
Погода в Хоннигсвог аэропорту (Норвегия) (102 км)
Погода в Суоловуопми-Лулит (Норвегия) (122 км)
Погода в Сёрхьюсен аэропорту (Норвегия) (134 км)
Погода в Карасйоке (Норвегия) (148 км)

Пояснения к столбцам:

Ветер - указаны скорость ветра в м/с - средняя за 10 мин, порывы в срок и между сроками (в фигурных скобках) и направление, откуда дует ветер: С - северный, СВ - северо-восточный, В - восточный, ЮВ - юго-восточный, Ю - южный, ЮЗ - юго-западный, З - западный, СЗ - северо-западный.
Видимость - горизонтальная дальность видимости в метрах или километрах. При видимости от 1 до 10 км при отсутствии осадков обычно наблюдается дымка, при ухудшении видимости до 1 км и менее - туман. В сухую погоду видимость может ухудшаться дымом, пылью или мглою.
Явления - указаны атмосферные явления, наблюдавшиеся в срок или в последний час перед сроком; фигурными скобками обозначены явления, наблюдавшиеся между сроками (за 1-3 часа до срока); квадратными скобками обозначены град или гололедные отложения с указанием их диаметра в мм.
Облачность - указаны через наклонную черту общая и нижняя облачность в баллах и высота нижней границы облаков в метрах; квадратными скобками обозначены формы облаков: Ci - перистые, Cs - перисто-слоистые, Cc - перисто-кучевые, Ac - высококучевые, As - высокослоистые, Sc - слоисто-кучевые, Ns - слоисто-дождевые, Cu - кучевые, Cb - кучево-дождевые. Подробнее классификацию облаков см. в Атласе облаков (PDF).
T - Температура воздуха - температура, измеренная на высоте 2 м над землей.
Td - Температура точки росы - температура, при понижении до которой содержащийся в воздухе водяной пар достигнет насыщения.
f - Относительная влажность воздуха - влажноcть воздуха, измеренная на высоте 2 м над землей.
Te - Эффективная температура - температура, которую ощущает одетый по сезону человек в тени. Характеристика душности погоды. При расчете учитывается влияние влажности воздуха и скорости ветра на теплоощущения человека.
Tes - Эффективная температура на солнце - температура, которую ощущает человек, с поправкой на солнечный нагрев. Характеристика знойности погоды. Зависит от высоты солнца над горизонтом, облачности и скорости ветра. Ночью, в пасмурную погоду, а также при ветре 12 м/с и более поправка равна нулю.
P - Атмосферное давление - приведенное к уровню моря атмосферное давление.
Po - Атмосферное давление - измеренное на уровне метеостанции атмосферное давление.
Tmin - Минимальная температура - минимум температуры воздуха на высоте 2 м над землей.
Tmax - Максимальная температура - максимум температуры воздуха на высоте 2 м над землей.
R - Количество осадков - Количество выпавших осадков за период времени, мм. При наведении курсора мыши на число - период времени, за который выпало указанное количество осадков.
R24 - Количество осадков - Количество выпавших осадков за 24 часа, мм.
S - Снежный покров - Высота снежного покрова, см. При наведении курсора мыши на число - состояние снежного покрова и степень покрытия местности в баллах.